GFSMA_sfc_temp_009.txt.gz
Temp
58 57 57 57 58 58 58 57 57 57 56 55 55 54 55 55 55 57 57 61 65 68 72 74 75 76 75 74 74 73 73 73 73 72 72 72 72 72 72 72 72 72 72
59 58 57 57 58 58 58 58 58 57 57 56 56 55 56 57 56 58 59 58 63 66 69 72 74 75 76 76 75 74 73 73 73 73 73 72 72 72 72 72 72 72 72
60 61 58 57 58 57 57 57 56 56 55 56 56 57 57 57 58 58 59 59 60 63 66 70 73 74 75 76 76 76 75 74 73 72 72 72 72 72 72 72 72 72 72
61 59 61 60 59 57 58 57 57 56 56 56 58 58 59 60 60 59 60 61 61 61 64 66 69 72 73 75 76 76 76 75 73 72 72 72 72 72 72 72 72 72 72
61 61 61 62 58 59 57 58 59 56 59 58 56 59 59 58 60 62 61 62 61 62 62 64 65 66 69 72 74 75 76 75 74 74 73 72 72 72 72 72 72 71 72
62 61 62 62 59 59 59 57 58 58 58 60 61 61 61 61 60 61 62 63 62 61 62 63 63 63 64 67 70 73 74 74 74 74 73 73 73 73 72 72 72 71 72
62 60 62 62 61 60 62 62 58 57 58 57 57 59 61 61 60 61 62 63 62 63 62 61 62 62 63 66 67 69 71 73 73 73 73 73 73 73 73 72 72 72 72
62 61 61 62 62 60 60 60 59 58 58 58 57 56 54 58 57 60 61 61 61 63 62 62 61 61 61 61 61 65 67 69 72 73 73 72 72 73 73 73 73 72 71
62 61 61 61 61 59 60 61 59 58 57 60 60 57 52 52 53 55 54 59 60 60 60 61 62 61 61 61 61 61 63 65 68 71 72 73 72 72 72 72 72 72 71
60 60 60 60 60 61 59 60 63 62 60 57 60 61 61 60 55 55 60 56 58 59 60 60 60 61 61 60 61 61 61 62 65 68 70 72 72 72 72 72 72 72 71
57 57 57 57 57 59 59 60 61 62 63 60 60 60 60 58 58 55 53 59 63 60 61 61 62 61 62 62 61 61 62 63 66 68 69 71 72 72 73 73 73 72 71
55 57 58 56 54 54 55 56 57 58 59 60 60 60 59 57 57 56 55 56 57 60 65 64 60 62 63 62 62 61 61 62 65 68 70 71 71 72 72 73 73 72 71
54 55 54 55 55 55 54 54 53 53 54 54 55 57 58 58 59 58 57 56 55 60 60 64 66 63 63 62 61 59 59 62 63 66 68 70 70 70 70 71 72 71 70
52 53 54 55 55 55 55 55 53 51 52 51 51 53 54 56 57 57 56 54 52 54 57 58 65 64 65 62 62 60 60 60 60 63 66 68 67 67 68 69 70 69 69
55 54 53 53 54 54 54 54 54 53 53 52 51 50 51 54 55 55 56 55 53 49 52 59 59 64 63 63 61 62 62 61 61 61 62 62 63 63 64 66 66 67 67
51 51 51 52 52 53 53 53 52 53 53 53 53 52 51 53 53 53 53 54 54 51 48 55 57 58 59 60 60 60 61 58 60 60 61 60 60 60 61 63 64 64 65
49 49 50 50 50 50 51 50 51 52 51 51 51 51 50 52 51 51 52 52 51 51 48 52 55 57 56 56 58 57 57 58 60 60 61 60 59 59 59 60 61 62 63
47 47 48 47 47 48 48 48 48 50 49 48 49 49 49 52 49 50 49 49 49 49 47 45 51 52 53 57 58 57 57 58 57 59 60 60 59 59 59 59 59 60 61
45 45 45 45 45 46 46 47 48 48 47 47 48 48 48 48 46 46 46 46 48 49 48 47 48 51 52 54 55 56 55 56 56 55 57 58 58 58 58 57 58 58 58
43 43 43 44 44 45 46 47 46 46 46 47 47 48 47 46 46 46 46 43 44 43 43 43 44 47 49 51 52 50 51 53 51 54 54 54 56 56 56 56 56 56 56
42 42 42 42 43 44 47 45 45 44 44 44 45 46 46 46 47 49 46 43 42 41 41 40 41 43 44 45 46 48 48 51 52 52 51 50 50 51 52 54 55 54 54
39 40 40 40 40 44 46 47 46 44 43 42 41 43 44 45 45 48 47 47 46 41 39 39 39 39 41 43 44 45 44 43 43 49 47 48 49 48 50 52 54 54 53
37 37 38 39 39 40 44 45 46 44 41 40 40 40 41 44 43 42 44 46 45 45 45 41 39 40 41 44 44 42 43 43 43 47 45 45 44 46 49 47 52 52 51
36 36 36 38 37 39 43 44 45 41 40 40 40 39 39 39 41 42 42 42 40 40 41 43 43 44 44 45 45 45 44 44 45 46 44 41 43 42 38 40 48 49 49
35 35 37 36 35 36 41 43 42 39 38 38 40 40 39 39 43 44 41 38 37 38 45 46 46 46 46 45 45 44 42 41 40 42 39 40 34 33 34 35 42 48 47
35 36 35 35 37 36 40 41 41 39 36 37 37 37 41 41 43 43 39 37 34 36 39 40 40 40 42 41 44 41 39 36 36 37 35 35 31 31 30 31 33 41 42

GFSMA_sfc_temp_012.txt.gz
Temp
58 57 57 56 57 57 57 57 57 58 57 57 56 55 55 54 54 56 56 60 64 67 70 72 73 74 75 75 75 74 73 73 73 73 73 72 72 72 72 72 72 72 72
58 58 57 57 56 57 58 58 58 58 57 56 57 55 56 56 56 56 57 57 63 65 68 71 72 74 74 75 76 75 74 73 73 73 73 72 72 72 72 72 72 72 72
59 59 57 57 58 57 58 57 57 57 56 57 56 57 57 56 57 57 57 59 60 63 65 69 71 73 74 75 75 76 75 74 73 72 72 72 72 72 72 72 72 72 72
59 58 58 59 60 56 56 56 57 56 55 56 57 58 58 58 59 58 59 60 60 60 63 66 68 71 72 73 75 75 75 75 74 73 72 71 71 71 71 72 72 72 72
60 59 59 61 58 56 55 57 58 55 58 58 56 58 58 57 58 61 60 60 60 61 61 63 64 66 68 71 73 74 75 74 74 74 74 73 72 72 71 71 71 71 71
60 58 59 59 58 56 57 55 57 61 59 60 61 62 63 62 59 58 60 62 61 61 61 61 62 62 64 67 70 72 74 74 73 73 73 73 73 73 73 72 71 71 71
60 59 58 59 59 57 59 62 62 58 58 57 56 58 59 60 60 60 61 60 61 62 61 60 61 61 62 65 66 68 70 72 72 72 72 72 73 73 73 73 73 72 71
60 60 58 58 58 57 57 57 57 59 59 60 56 56 53 57 57 60 60 60 60 61 61 61 61 60 60 60 61 65 67 69 71 71 72 72 72 72 73 73 73 73 73
59 58 57 57 57 57 57 57 58 58 57 60 60 56 53 53 58 61 55 58 59 59 60 61 61 61 60 60 61 61 63 65 68 70 71 72 72 72 72 73 73 73 73
56 57 56 55 54 55 54 55 58 57 57 57 60 61 59 57 54 53 62 57 58 58 59 60 60 60 61 60 60 60 61 62 66 69 71 71 71 72 72 73 72 72 71
54 55 55 53 53 53 52 51 52 53 53 53 54 55 55 55 56 54 51 56 61 61 61 60 61 61 62 62 61 60 61 63 66 69 70 71 71 72 72 73 73 72 71
52 53 54 53 52 52 52 52 51 50 50 51 51 52 51 50 51 51 50 51 52 57 61 63 62 60 62 62 62 61 62 62 65 68 70 71 71 71 72 72 73 72 72
50 51 51 51 52 52 52 52 50 49 49 49 49 49 51 51 52 52 50 50 51 54 55 59 61 62 61 60 61 59 60 61 63 65 68 70 70 70 69 70 71 72 71
48 50 50 50 50 51 51 51 50 48 49 48 47 48 49 51 51 51 50 49 47 49 53 54 60 62 61 60 59 58 60 60 61 63 65 67 67 66 66 67 68 68 69
51 49 47 47 48 49 49 49 48 48 49 48 46 46 47 49 49 50 51 50 47 43 45 51 51 57 56 58 59 60 59 60 61 61 62 61 62 62 62 62 65 65 66
45 45 46 46 46 46 47 46 47 47 47 47 49 46 47 48 48 49 49 49 48 46 42 50 51 52 53 55 57 58 59 57 59 61 61 61 60 60 60 60 60 61 63
43 43 44 44 44 44 45 44 45 46 46 45 45 45 45 47 47 47 47 46 45 45 42 46 49 50 48 50 53 55 57 58 59 59 59 60 60 59 59 59 59 59 59
42 42 42 42 42 43 43 43 42 43 43 42 43 43 44 48 44 44 44 43 43 45 41 38 43 44 45 47 49 50 53 56 56 58 59 59 59 59 59 59 59 58 58
40 41 41 40 41 41 41 42 42 42 42 42 43 43 42 43 42 42 41 41 45 45 41 39 39 43 43 44 46 48 49 50 54 55 57 57 57 58 58 58 58 58 57
38 39 39 39 40 40 41 42 42 42 42 42 42 41 41 41 41 41 41 41 43 39 39 38 38 39 39 42 42 41 42 46 47 52 53 54 56 56 56 57 56 55 55
38 38 38 38 38 40 43 41 42 41 41 40 40 40 41 42 44 44 42 40 40 39 40 38 36 37 37 37 37 40 40 44 45 47 46 48 51 52 51 53 52 53 53
36 36 36 36 36 40 43 44 43 40 40 39 37 39 39 41 41 44 44 45 44 39 38 37 35 35 36 37 39 40 40 39 37 47 45 45 48 48 50 51 53 53 53
33 34 34 35 35 36 41 43 43 40 38 37 37 37 38 41 40 39 41 43 43 44 43 39 35 35 36 38 40 38 39 39 38 43 43 41 45 45 49 51 52 52 52
32 33 33 34 34 36 40 41 42 38 37 37 37 37 37 37 38 39 38 36 35 38 38 40 39 37 39 41 40 40 39 38 39 41 44 39 44 43 45 45 47 48 49
32 32 34 33 32 33 39 40 40 37 36 36 37 37 36 36 40 42 37 35 35 35 40 42 42 43 44 44 43 39 34 34 34 35 40 39 41 42 34 35 38 45 48
32 33 32 32 34 33 37 39 39 37 35 35 35 36 39 39 41 41 37 35 31 32 35 35 36 37 39 39 41 38 35 32 32 31 32 36 37 33 33 32 34 39 46

GFSMA_sfc_temp_018.txt.gz
Temp
78 79 79 79 79 79 79 78 78 78 78 79 79 78 77 78 78 78 78 68 68 68 69 72 73 73 74 74 74 74 74 74 74 74 73 73 73 73 73 73 73 73 73
79 78 78 78 78 79 79 78 77 77 77 78 78 78 78 78 78 77 78 78 68 67 68 70 72 73 73 74 74 74 74 74 74 74 73 73 73 72 72 72 72 73 73
77 77 77 77 78 79 77 78 77 77 77 77 76 78 78 79 78 78 78 78 77 67 67 69 70 72 73 73 74 74 74 74 74 74 74 73 72 72 72 72 72 72 72
77 76 76 77 78 77 77 76 75 74 74 74 74 75 75 76 76 77 77 78 78 78 73 68 68 69 70 72 74 74 74 74 73 73 73 73 73 72 72 72 72 72 72
76 75 76 76 76 75 75 74 73 73 71 71 68 71 72 72 74 76 77 76 76 76 76 72 67 66 67 68 71 73 74 73 73 73 73 73 73 73 72 72 72 72 71
75 75 75 74 75 74 74 73 71 73 72 71 70 71 72 73 74 75 76 77 77 76 76 75 75 74 65 66 67 69 70 72 72 72 72 73 73 73 73 72 71 71 71
73 72 72 72 72 71 71 71 70 69 69 71 68 68 70 73 74 76 76 75 76 77 77 77 78 77 76 67 67 68 69 69 70 71 71 71 71 72 73 73 73 72 71
70 70 69 69 69 69 68 67 67 65 66 68 63 62 61 66 73 71 71 72 74 76 76 76 76 75 75 75 72 68 68 68 69 70 71 70 71 71 71 72 72 73 73
68 68 67 67 67 66 65 65 64 62 60 64 66 60 56 56 59 66 68 70 72 72 72 73 74 74 75 75 72 71 65 66 68 69 69 70 70 70 70 71 71 72 72
66 65 65 65 65 65 63 63 64 62 61 58 61 64 62 60 53 53 64 65 68 67 67 70 70 71 72 73 70 65 64 65 67 69 69 69 69 70 70 71 71 71 71
64 63 63 62 62 62 62 61 60 60 61 58 57 57 58 59 59 54 51 56 62 64 66 67 69 70 71 71 70 68 63 63 65 66 67 67 68 68 69 68 69 69 70
63 61 61 61 61 59 59 59 59 58 58 56 57 57 55 53 52 52 51 52 54 59 63 64 65 67 66 64 63 61 59 61 62 64 65 66 67 67 67 66 66 66 66
60 58 59 59 59 58 58 58 56 55 55 53 54 55 56 54 55 53 51 52 51 55 58 62 64 65 65 65 65 58 58 59 60 61 63 64 64 65 65 65 66 65 64
58 57 57 57 57 57 57 57 55 54 55 55 54 54 54 54 54 53 51 49 45 48 54 54 61 61 63 64 62 57 60 58 58 59 60 60 60 60 61 62 63 64 64
56 56 56 56 56 56 56 55 54 54 55 55 53 54 53 53 54 54 53 51 45 40 44 51 52 58 59 61 60 59 58 56 57 56 56 57 58 58 59 59 60 60 61
55 55 55 55 55 55 54 54 54 54 53 53 53 52 51 52 52 52 50 50 49 46 42 50 51 52 55 58 57 56 56 53 54 55 54 55 56 57 57 57 57 58 59
54 53 53 53 53 52 53 52 52 52 50 50 51 50 49 51 49 49 49 48 47 46 42 46 49 52 51 52 54 55 55 55 56 53 53 54 54 54 55 55 55 57 57
53 52 52 51 51 51 51 50 49 50 49 48 49 48 47 49 47 47 47 46 46 47 43 39 45 47 47 49 51 51 53 54 54 52 52 52 52 53 54 54 54 54 54
51 51 50 49 49 48 48 49 49 48 48 48 48 47 46 46 45 45 45 45 46 45 44 42 41 46 46 48 47 48 48 49 53 50 51 51 52 53 53 53 53 53 53
49 49 49 48 48 47 47 48 47 47 47 47 47 46 46 45 44 43 44 43 43 42 43 41 40 41 43 45 46 44 44 47 46 50 50 50 50 50 51 52 52 52 51
48 48 46 47 47 47 48 44 44 44 44 45 45 45 45 44 43 44 43 41 40 40 39 38 37 39 40 41 40 42 39 42 43 45 45 47 47 49 50 51 50 50 51
47 46 46 46 45 46 44 42 42 42 43 43 43 44 45 43 44 43 43 43 42 39 37 36 37 36 37 39 39 39 38 35 32 44 41 43 48 46 48 50 48 49 50
46 45 45 45 44 44 43 41 41 42 42 43 43 42 43 45 43 41 43 43 42 40 40 39 36 36 35 39 39 36 35 34 34 41 41 37 44 41 46 46 46 47 48
45 44 44 44 43 43 41 40 39 42 42 43 43 42 42 41 41 42 42 39 38 41 41 42 39 39 38 38 38 38 36 36 38 41 41 33 41 38 44 46 44 45 47
43 43 43 42 41 41 40 39 40 41 41 41 42 42 41 40 41 41 38 34 36 39 41 40 40 40 40 40 39 36 32 31 32 36 40 36 37 36 36 40 44 46 47
42 42 41 42 40 40 40 39 40 40 38 40 40 40 41 41 41 40 37 38 32 35 36 37 38 38 37 38 38 36 33 29 30 30 37 32 34 35 32 40 39 40 42

GFSMA_sfc_temp_021.txt.gz
Temp
80 81 80 80 80 80 79 78 78 78 79 80 80 80 79 79 79 79 79 71 70 72 73 74 73 73 74 74 74 74 74 74 74 74 74 73 73 73 73 73 73 73 73
80 79 79 79 79 79 80 79 78 78 77 78 78 79 79 79 80 79 79 79 70 70 72 73 73 73 73 74 74 74 74 74 73 73 73 73 73 73 73 73 73 73 73
79 78 77 77 78 80 79 78 77 76 74 74 73 74 77 78 78 78 78 78 78 69 69 73 73 73 72 73 74 74 74 74 73 73 73 73 73 72 73 73 72 72 72
79 77 77 77 77 76 74 72 72 73 73 74 74 74 74 75 76 76 76 78 77 77 74 69 71 72 72 72 73 73 74 73 73 73 73 73 73 73 73 72 72 72 72
77 76 74 73 76 75 75 74 73 73 71 72 72 73 73 74 74 76 76 76 77 76 76 72 68 67 69 71 72 72 72 72 72 72 72 72 73 73 73 73 72 72 72
75 75 74 74 74 73 72 71 70 71 70 70 71 70 71 72 73 72 74 77 76 76 76 75 75 74 67 68 71 72 72 72 71 71 71 71 71 71 72 73 72 72 71
73 72 71 72 71 70 70 69 68 66 66 68 64 65 67 68 71 71 70 70 70 72 74 75 74 75 74 69 71 71 71 72 72 71 71 70 70 70 70 71 72 72 72
70 70 68 68 68 67 67 65 65 62 63 65 60 59 56 61 68 66 66 68 69 70 70 71 71 71 70 70 68 69 70 72 72 72 71 71 70 69 70 70 70 71 71
68 67 66 66 65 65 63 63 62 60 58 61 63 57 52 51 55 61 63 65 66 65 67 66 67 68 69 69 67 67 67 68 70 71 71 69 69 70 70 69 70 69 70
65 65 64 64 63 63 61 61 62 60 59 56 58 61 58 57 50 49 60 60 63 63 63 64 65 66 67 67 65 63 62 63 64 65 67 67 67 67 69 69 69 70 69
65 63 63 62 61 61 60 59 58 58 59 56 55 55 55 56 56 51 47 52 57 60 61 62 64 63 64 64 65 63 63 63 64 64 65 64 65 66 67 68 68 68 66
63 61 61 61 60 59 57 58 58 56 55 55 54 54 53 51 50 49 47 48 48 54 58 59 60 61 63 63 63 60 61 61 62 63 63 63 64 64 64 64 64 65 65
60 58 59 59 58 58 58 57 55 54 53 53 53 53 54 53 53 51 49 47 46 51 52 56 58 58 61 60 59 57 57 59 60 61 62 62 60 60 60 61 62 63 64
58 58 58 58 58 58 57 57 54 54 53 53 52 52 52 53 53 52 49 46 42 44 47 47 54 56 57 57 54 55 56 56 58 58 59 58 57 57 57 57 58 60 61
58 57 57 56 56 56 56 55 54 53 54 53 52 52 51 52 52 51 51 49 43 36 38 45 46 52 53 53 53 53 54 55 56 56 55 56 56 55 55 55 56 57 58
57 56 55 55 55 55 55 54 53 53 52 52 52 51 50 51 50 50 49 48 46 42 37 45 46 48 50 52 52 52 52 51 53 54 55 55 54 54 54 54 54 54 56
55 55 54 54 53 53 53 52 51 51 50 50 50 49 48 49 48 48 47 46 45 44 38 42 46 47 46 46 48 49 50 50 51 53 53 53 53 52 53 52 53 53 54
55 53 53 52 52 51 51 50 49 49 48 47 48 47 47 49 46 46 45 44 43 44 40 37 41 42 43 45 45 45 48 51 49 50 51 51 52 52 52 52 52 53 53
52 52 51 50 49 49 49 49 49 47 47 47 47 46 45 45 44 44 43 42 42 43 41 37 37 41 42 43 42 44 44 45 49 49 50 49 50 50 50 50 51 52 52
50 50 50 49 49 49 48 48 47 45 45 45 45 45 45 44 43 42 42 41 41 38 38 37 37 37 39 41 41 38 38 41 41 46 47 47 47 48 49 50 49 48 49
49 49 48 48 49 48 49 46 44 43 42 42 43 45 45 45 44 44 43 40 38 36 37 36 34 34 34 35 35 37 35 37 38 40 39 41 42 42 44 47 48 49 50
48 48 47 47 47 47 47 45 44 41 41 41 41 43 44 44 44 44 44 43 42 37 35 33 32 31 32 35 35 34 33 31 29 39 37 37 41 40 42 44 47 48 48
47 47 47 47 46 45 45 44 43 40 40 41 41 42 42 45 43 41 42 42 42 42 40 36 33 32 32 34 34 31 31 31 30 35 35 32 38 36 41 44 46 46 47
46 46 45 45 44 45 44 43 42 40 41 41 41 41 41 40 40 40 39 36 36 37 38 40 37 36 36 36 34 35 33 32 33 35 37 29 35 34 39 40 43 44 45
44 44 44 43 43 43 43 42 41 40 39 39 41 41 40 39 41 41 37 32 34 36 40 40 40 40 40 40 39 34 28 28 27 30 34 31 31 32 33 35 39 44 41
43 43 43 44 43 42 43 42 41 39 37 38 38 39 40 40 41 40 36 35 30 32 33 34 35 35 36 35 37 34 31 26 26 25 31 28 29 30 27 33 35 37 38

GFSMA_sfc_temp_024.txt.gz
Temp
68 68 68 68 67 68 67 67 67 69 70 70 70 71 73 73 73 72 71 69 71 73 76 77 76 76 75 75 74 74 74 74 74 73 73 73 73 73 73 73 73 73 74
68 68 68 69 70 71 71 71 71 69 70 71 71 72 72 73 72 70 71 70 70 71 74 77 77 76 76 76 75 74 73 73 74 73 73 73 73 73 73 73 73 73 73
69 68 67 67 70 71 71 70 70 69 67 67 65 66 66 65 68 68 69 69 69 69 71 75 76 76 75 75 75 75 74 73 72 72 73 73 73 73 73 73 72 73 73
72 67 70 69 70 70 69 67 63 62 61 61 61 62 63 64 64 65 66 67 66 70 69 71 72 74 74 75 75 75 75 73 73 72 71 71 72 72 72 73 73 72 72
70 70 68 64 64 63 61 61 60 58 57 58 61 61 60 62 62 68 64 66 65 67 69 69 68 68 70 73 75 75 74 73 72 72 72 71 71 71 71 72 72 72 72
65 62 62 61 61 59 59 58 57 57 56 56 63 61 58 61 59 60 59 65 64 65 64 66 64 66 67 70 71 73 74 73 72 72 71 70 71 70 70 70 71 71 71
62 59 58 59 58 57 57 58 56 54 53 54 51 54 54 58 56 57 60 60 60 64 62 63 63 62 64 66 67 69 70 71 71 71 72 71 70 71 71 71 70 70 71
60 61 56 56 56 54 54 53 52 50 51 52 48 48 44 50 53 57 57 57 59 57 60 62 61 62 62 62 62 66 67 69 70 70 69 69 70 69 69 70 70 70 70
58 57 56 54 53 53 51 50 50 49 46 49 50 46 41 40 47 51 54 55 55 58 55 58 60 61 60 61 60 60 63 64 67 68 68 68 68 68 69 68 68 69 69
56 56 55 54 52 51 49 49 53 48 47 45 47 53 47 45 42 42 48 52 54 54 55 54 56 58 57 58 60 60 61 63 65 66 67 67 67 68 66 66 67 67 67
55 54 54 52 51 50 49 48 48 47 47 45 45 44 45 45 46 43 39 43 49 50 52 54 54 55 56 57 56 58 59 59 61 62 64 65 65 66 66 66 64 64 63
51 52 53 51 50 49 48 48 47 46 45 45 45 44 44 41 42 42 41 42 42 47 50 51 52 51 53 53 57 56 55 57 58 60 61 62 63 64 65 63 63 62 62
48 48 49 49 48 48 49 48 46 44 44 43 43 44 44 44 46 45 43 41 40 44 45 48 48 49 53 51 51 53 53 55 56 57 59 60 60 60 60 60 60 60 61
47 49 48 48 48 49 48 47 45 44 45 42 42 42 43 45 45 45 43 40 37 39 42 41 46 47 49 48 51 52 50 52 53 55 55 56 56 56 57 57 58 58 58
53 48 47 47 47 47 47 46 43 43 43 43 42 41 42 44 44 44 43 43 38 32 34 40 40 46 46 47 49 49 48 51 52 52 52 53 54 54 55 55 56 56 56
48 47 46 46 46 46 46 44 43 43 43 42 45 43 43 44 43 44 42 42 40 37 32 40 41 42 44 47 47 47 47 49 49 51 51 51 52 52 52 53 54 54 54
46 46 46 45 45 44 44 42 42 43 43 41 42 43 42 43 42 42 42 41 39 38 34 37 40 42 41 41 43 44 45 45 45 49 49 50 51 51 52 52 52 53 53
46 45 45 44 44 43 42 41 41 41 40 40 40 41 41 44 40 41 40 39 38 38 35 32 37 37 38 40 41 40 43 46 44 47 48 48 49 49 49 50 50 50 51
43 43 43 42 42 43 42 41 42 39 39 39 39 39 39 39 39 39 38 37 38 40 37 34 33 37 37 39 38 39 40 40 43 45 46 46 47 47 47 48 48 49 49
42 42 42 42 42 42 43 43 41 39 38 39 39 39 39 39 39 38 39 38 40 37 35 33 33 32 35 37 37 32 33 36 36 41 42 43 44 45 46 46 47 47 47
42 42 41 41 41 42 46 42 41 38 37 37 37 38 39 41 44 43 41 39 37 35 34 31 31 31 32 31 31 33 31 33 34 35 35 36 37 37 39 42 43 45 46
40 40 39 39 39 44 46 46 44 39 37 36 35 37 39 41 41 43 43 43 41 36 33 30 30 29 31 32 32 30 29 28 26 36 32 32 35 34 37 38 43 45 46
38 37 37 38 37 37 45 46 45 40 36 36 36 36 37 40 39 37 39 41 37 39 39 34 30 30 30 31 30 29 29 28 28 31 31 29 34 32 36 40 42 43 45
36 36 36 36 36 39 44 45 44 38 36 36 36 36 36 36 37 38 37 34 34 34 35 36 34 34 34 35 34 34 32 29 30 31 33 25 31 29 34 36 40 41 42
35 34 36 36 35 37 43 44 42 37 36 35 37 37 36 36 39 41 36 31 31 33 37 39 38 38 39 38 37 33 26 25 24 27 30 26 28 27 30 31 35 40 41
36 38 37 36 38 36 41 43 42 38 35 35 35 35 37 38 40 40 35 33 29 30 32 32 32 32 34 32 36 32 29 24 24 23 28 25 25 26 24 31 32 33 35

GFSMA_sfc_temp_030.txt.gz
Temp
61 62 62 62 62 62 65 66 67 68 68 68 65 62 63 62 62 62 60 64 67 70 72 74 75 75 75 77 76 75 74 73 73 73 73 72 72 72 73 73 73 73 73
63 63 62 63 66 68 68 67 66 64 63 61 59 59 58 58 59 59 59 59 65 68 70 72 73 73 74 74 75 75 74 73 73 73 73 73 72 72 71 72 72 73 73
64 64 64 64 65 65 65 63 61 57 55 56 54 56 56 56 56 57 57 57 57 62 66 69 70 70 71 71 72 72 72 72 71 71 71 71 71 71 71 71 71 71 71
67 65 63 62 62 61 56 54 52 52 52 51 51 53 52 53 53 53 55 54 54 57 59 65 66 67 67 68 69 70 70 70 69 69 70 70 70 71 71 71 71 71 71
62 60 57 54 54 53 52 52 51 50 49 49 52 51 51 50 51 56 52 53 53 54 54 60 60 61 63 65 66 67 68 68 68 68 68 69 70 70 71 71 72 72 72
57 55 53 52 52 51 50 49 49 49 47 46 53 52 50 48 49 48 49 53 51 52 51 52 50 52 60 61 63 64 65 65 65 66 66 67 68 68 69 70 70 71 71
54 52 51 51 50 49 47 49 47 46 45 45 44 44 45 47 47 49 48 49 50 51 51 50 52 53 53 58 59 61 61 62 63 64 65 65 66 67 68 69 70 70 71
53 53 50 48 48 47 46 45 44 43 43 43 41 39 38 42 46 51 46 49 46 50 49 52 51 51 50 51 51 57 58 60 61 62 63 63 64 65 66 67 68 69 69
52 50 49 48 47 45 44 43 43 42 40 42 42 41 36 34 39 42 47 44 49 45 47 48 50 51 51 47 50 50 55 57 59 60 61 62 62 63 64 65 66 67 67
50 50 49 47 46 44 43 43 46 42 41 39 41 46 42 40 34 34 40 45 42 47 44 44 46 47 49 48 50 52 54 55 57 58 59 60 61 61 62 63 63 64 65
48 49 48 46 45 44 43 42 42 41 40 39 38 38 38 38 38 34 33 36 43 44 45 45 42 46 47 45 46 47 53 53 55 56 57 58 59 60 61 61 62 62 63
45 46 47 44 43 43 42 41 41 40 40 39 38 38 37 36 35 34 34 35 36 40 42 44 44 45 45 44 48 50 51 52 53 54 55 57 57 57 58 59 59 59 60
43 43 44 43 42 42 42 41 40 39 39 37 36 37 38 37 38 38 36 34 34 38 39 41 41 41 44 43 44 48 49 50 50 52 53 54 54 54 55 57 57 57 58
43 43 42 42 42 42 41 40 39 38 39 36 36 35 36 36 37 38 36 33 30 33 36 35 41 39 39 41 43 48 45 48 49 50 51 52 51 52 52 53 54 55 53
48 42 42 41 41 41 40 39 38 37 37 36 35 34 34 36 36 37 37 36 32 26 28 35 35 39 39 41 43 43 43 46 47 48 49 49 49 50 50 52 52 52 51
42 41 41 40 40 40 40 38 37 37 36 36 38 34 34 35 36 36 35 35 35 31 27 35 36 39 40 42 42 42 42 45 45 47 47 47 48 48 48 49 50 49 49
41 41 40 39 39 39 39 37 37 37 36 35 34 34 34 35 35 35 35 35 34 33 29 33 37 38 37 37 39 40 41 40 40 44 46 46 47 47 47 48 48 48 49
40 39 39 39 39 39 38 37 36 35 34 34 34 33 33 38 33 33 33 33 33 34 32 30 33 34 35 37 37 36 38 41 39 42 43 45 45 45 46 46 46 46 47
39 39 39 38 38 38 37 36 35 35 34 34 33 32 32 33 32 32 33 33 34 37 35 32 31 35 35 36 34 36 34 36 38 41 43 43 43 44 44 44 44 44 44
38 38 38 38 38 37 37 37 36 35 34 34 34 33 33 32 32 32 35 34 36 33 33 31 31 31 32 35 32 30 30 33 32 37 39 40 41 42 42 43 43 43 43
38 37 37 36 35 36 41 39 38 35 33 32 32 33 34 37 40 40 38 36 35 32 30 30 30 30 29 29 28 30 29 30 31 33 31 33 34 34 35 38 39 40 40
36 36 34 33 33 39 42 44 43 37 34 32 32 34 34 37 36 40 40 40 39 34 31 29 29 27 28 29 30 29 28 26 23 33 30 30 32 31 32 33 38 39 40
33 32 32 32 31 31 42 43 43 38 33 31 31 32 33 37 36 33 36 39 38 38 36 32 28 27 28 29 29 27 26 25 25 29 29 26 31 29 32 35 38 38 39
31 31 31 31 30 33 41 41 41 34 32 32 32 31 31 32 33 36 35 32 32 31 31 33 31 32 32 33 32 30 28 27 28 29 30 22 27 26 30 31 36 37 38
30 30 31 30 28 29 39 40 39 33 33 32 33 31 32 33 37 39 33 30 30 29 35 37 37 37 36 36 35 29 25 23 21 24 28 25 24 24 26 27 30 35 37
30 31 30 29 33 29 36 39 38 34 31 32 32 31 36 36 38 38 34 31 25 27 28 29 29 30 32 31 34 30 26 21 21 20 27 23 23 24 22 28 28 30 30

GFSMA_sfc_temp_033.txt.gz
Temp
60 59 59 60 60 61 65 66 66 65 65 65 62 58 59 57 57 57 56 62 67 69 71 72 73 73 73 74 74 74 73 73 73 72 72 73 73 72 72 72 72 73 73
65 63 60 60 61 66 65 64 63 61 59 55 55 55 54 54 54 55 55 54 63 65 67 70 70 71 70 71 71 71 71 71 71 71 71 71 71 71 71 72 72 72 72
65 61 63 61 61 63 62 61 59 53 52 53 51 53 53 51 52 52 53 52 53 60 63 66 66 67 67 68 69 69 69 69 69 69 69 70 70 70 71 71 71 71 72
65 63 61 60 59 56 53 51 50 50 49 48 48 49 49 50 49 50 51 50 51 53 56 62 62 62 63 65 66 67 67 67 67 67 67 68 68 68 69 70 71 71 72
62 58 55 52 51 50 49 50 49 47 46 47 49 49 48 47 48 52 48 50 50 50 50 56 57 58 60 62 63 64 65 64 64 64 65 66 66 67 68 69 69 70 70
55 53 51 50 49 48 47 47 46 46 44 43 50 49 46 46 47 46 46 50 48 48 48 48 47 49 57 58 60 61 62 62 62 63 63 64 65 65 66 67 68 69 70
52 50 48 48 47 46 45 46 45 43 43 43 41 43 43 45 45 45 45 45 46 48 46 47 48 48 49 55 56 58 59 59 60 61 62 63 63 64 64 65 66 67 68
51 51 47 46 46 45 44 43 42 41 41 41 39 37 36 40 43 49 44 46 44 44 45 49 45 46 45 45 49 55 56 57 58 60 60 61 61 62 63 63 64 65 66
49 48 47 46 45 43 42 41 41 40 38 40 40 39 34 32 36 40 43 42 45 41 44 44 45 47 45 45 47 48 53 55 57 58 59 59 60 60 61 62 63 64 64
48 48 47 45 44 42 41 42 43 39 39 37 39 44 39 37 33 31 38 43 40 44 40 40 43 43 44 45 47 50 52 53 55 56 57 58 58 59 60 61 62 63 63
46 47 46 44 43 41 40 40 39 39 38 37 36 36 35 36 35 31 31 34 40 42 42 42 39 42 43 43 41 45 51 52 54 55 56 56 57 58 59 61 60 60 61
44 44 45 43 41 41 40 39 39 39 37 37 36 35 35 34 33 31 31 32 33 37 38 42 41 41 41 40 45 49 49 50 51 53 54 55 55 56 56 57 58 58 59
42 42 42 41 40 40 40 39 38 37 37 35 34 34 35 35 35 34 33 32 31 35 35 36 38 39 43 43 41 47 48 49 50 51 52 53 53 53 54 55 55 56 57
42 41 41 40 40 40 39 38 37 36 37 35 34 33 34 34 34 34 33 30 27 30 33 31 38 37 39 38 42 47 44 47 48 49 50 51 51 51 51 52 53 54 54
45 41 40 39 39 39 39 37 36 36 35 34 33 33 33 34 34 33 33 32 29 24 26 32 32 37 38 39 41 42 41 45 47 48 48 49 49 49 49 50 50 50 51
41 40 39 38 38 38 38 36 35 36 35 34 36 33 32 33 33 32 32 32 32 28 24 32 34 36 38 40 41 41 41 44 45 46 47 47 47 47 48 48 48 49 50
39 39 38 38 37 37 37 35 35 36 34 33 33 33 32 33 32 32 32 32 31 31 26 31 35 36 36 36 38 39 40 39 40 43 44 45 46 46 46 46 46 46 47
39 38 37 37 37 36 36 34 33 34 33 32 32 31 32 37 31 31 31 30 31 32 29 27 31 33 34 36 36 35 38 40 36 40 43 44 44 45 45 45 44 44 45
37 37 37 36 36 36 35 34 34 33 33 32 32 31 32 31 30 31 31 31 31 35 33 31 29 33 34 35 34 34 33 34 37 40 42 42 42 43 43 43 43 43 43
36 35 35 35 35 34 35 35 35 33 32 33 33 32 31 31 30 31 33 34 35 32 32 30 30 31 32 32 32 30 29 32 32 36 38 39 40 41 42 42 42 42 42
35 35 35 34 33 35 39 36 36 34 32 31 31 31 33 35 39 39 37 34 33 31 30 29 29 28 27 28 27 29 28 30 31 31 30 32 33 33 34 37 38 39 39
34 33 32 32 31 37 41 43 41 34 31 30 30 31 31 36 35 39 39 39 38 34 30 29 26 26 26 27 28 28 27 26 23 32 29 28 31 30 31 32 37 38 39
31 31 31 30 29 29 41 42 42 34 30 29 29 31 32 35 35 32 35 38 37 36 37 31 27 26 26 28 28 26 26 25 25 29 29 25 29 27 30 33 37 37 38
30 30 30 29 28 32 40 41 41 32 30 29 30 30 29 30 31 35 34 31 30 31 31 32 31 31 31 32 32 30 27 27 28 30 30 21 27 25 29 30 35 36 37
30 28 29 28 27 28 38 39 38 32 31 30 30 31 32 32 36 39 34 29 30 30 34 36 36 37 36 36 35 29 25 23 21 25 28 25 25 24 26 28 31 35 37
30 30 29 28 30 27 35 38 38 34 31 32 31 31 36 35 38 38 34 30 25 27 28 29 29 30 31 30 34 30 26 21 21 20 27 23 23 24 22 29 29 30 30

GFSMA_sfc_temp_039.txt.gz
Temp
69 71 70 71 70 70 70 67 65 65 64 66 67 66 65 65 65 67 67 63 66 68 69 70 69 69 69 69 69 69 69 69 69 69 70 70 70 70 71 71 72 72 72
68 67 65 64 64 64 64 66 64 64 63 64 65 64 63 63 63 63 64 64 62 65 66 66 66 66 66 67 68 67 68 68 68 68 68 68 68 69 69 69 70 71 72
67 64 63 61 61 65 63 64 63 62 62 62 62 63 63 62 62 61 62 62 62 60 62 63 63 63 63 65 66 66 66 66 66 66 66 66 66 67 67 68 69 70 70
65 63 61 61 59 62 62 60 59 59 59 58 59 61 60 60 61 60 60 61 59 60 59 58 59 59 60 61 63 64 64 64 64 64 64 64 65 65 66 67 67 68 69
65 60 58 59 60 59 58 59 56 57 55 57 58 60 58 58 59 59 59 58 57 57 58 55 55 55 57 59 60 61 61 62 62 62 63 63 63 64 65 66 66 67 67
60 58 56 58 58 57 57 56 55 55 54 53 56 57 57 57 57 57 58 59 57 56 56 55 56 56 54 55 57 58 59 60 60 60 61 61 62 63 64 64 64 65 66
58 56 56 55 55 54 54 55 55 53 52 52 54 56 56 55 56 57 57 57 55 54 54 56 56 55 55 53 54 55 57 57 58 59 60 60 61 62 62 63 63 64 65
55 56 55 54 54 53 53 53 53 52 51 50 49 49 48 54 55 56 54 54 53 54 54 54 53 53 54 53 52 53 53 54 56 58 58 59 60 60 61 62 63 64 65
54 54 53 53 52 53 50 50 50 49 49 49 49 50 47 46 45 52 53 53 53 51 52 51 51 52 52 52 51 51 51 52 54 56 58 58 59 60 60 61 63 63 63
52 53 52 52 52 51 50 50 50 49 49 46 49 49 48 47 43 42 49 51 50 49 48 49 50 50 50 50 49 49 49 51 53 55 56 57 58 59 60 61 61 62 62
52 51 51 50 50 49 49 49 48 48 48 47 46 46 45 46 44 41 39 43 46 48 48 47 48 48 49 49 49 48 49 50 52 53 55 56 57 58 59 59 60 60 61
49 49 49 49 49 48 48 47 47 46 46 45 45 44 44 43 42 40 38 39 39 44 45 46 47 48 49 48 48 47 47 48 50 51 52 54 54 55 56 57 58 58 58
48 47 49 49 48 47 47 47 46 45 44 44 44 44 44 43 43 41 39 38 37 40 42 45 46 47 47 47 46 45 45 47 48 49 51 52 52 53 53 54 55 56 56
47 47 47 48 47 47 46 46 45 45 44 44 42 43 43 43 43 41 39 36 34 38 41 41 46 45 46 45 45 44 45 45 46 47 49 50 50 50 51 51 52 53 52
47 47 47 46 46 46 45 44 44 44 44 44 43 42 41 42 42 42 41 39 35 30 33 39 39 44 44 44 44 45 44 44 45 46 46 47 47 48 48 48 49 49 49
47 46 46 46 45 45 44 44 43 43 43 43 43 41 41 41 41 41 40 39 38 35 31 38 39 41 42 43 43 43 43 43 43 44 45 45 46 47 47 47 47 48 48
46 45 45 45 44 43 43 43 42 42 41 41 41 40 39 40 40 40 39 39 37 37 32 36 39 41 40 40 42 43 42 42 43 43 44 44 44 45 45 46 46 46 46
45 44 44 43 43 42 42 41 41 41 40 39 39 38 38 40 38 39 38 37 36 37 34 31 35 38 39 40 40 39 41 42 41 42 42 43 43 44 44 44 45 45 45
43 43 43 42 41 40 40 41 41 40 40 39 38 37 37 37 36 37 37 36 36 37 36 34 34 38 38 39 38 39 38 39 40 40 41 41 42 42 43 43 43 44 44
42 41 41 40 39 39 40 41 41 40 40 39 38 38 37 37 36 36 36 37 37 36 36 34 34 32 35 38 36 34 34 37 37 39 39 40 40 41 41 41 41 41 41
41 40 39 39 38 39 42 42 42 41 39 38 38 38 38 38 39 39 38 37 37 35 34 32 30 33 32 33 32 34 33 34 35 37 36 37 39 39 39 39 39 39 39
39 39 38 37 37 39 40 42 43 41 39 37 36 38 38 37 37 39 39 39 38 35 32 31 30 30 32 33 34 32 30 29 26 37 35 33 38 36 38 39 38 39 39
38 37 37 36 36 36 39 41 42 40 38 37 37 37 36 37 37 36 37 38 38 37 38 35 32 31 31 33 31 29 29 29 28 33 32 29 36 34 38 38 38 38 39
36 36 36 35 34 36 38 40 40 39 38 37 37 36 35 35 36 36 37 33 33 36 36 36 35 35 34 35 35 33 31 30 32 34 35 25 33 32 35 36 37 37 38
35 35 35 34 33 34 36 38 39 38 37 36 37 37 36 36 38 39 35 32 34 34 37 37 37 37 36 36 35 32 28 25 24 28 33 29 30 30 31 33 37 37 38
35 35 34 34 32 33 35 38 38 37 35 36 37 37 37 37 38 38 36 34 30 31 31 32 33 33 33 33 34 32 29 23 23 22 32 26 27 28 25 34 35 36 36